Location: Douglas Junction
(33.8559°N, 118.1648°W)
Time: 14:57:26
(UTC+00:00)

Daily predictions for brighter satellites

Satellite Brightness Start Highest point End
(mag) Time Altitude Azimuth Time Altitude Azimuth Time Altitude Azimuth
ATLAS 3B R/B 3.9 12:14:26 10° S 12:20:16 37° ESE 12:26:17 10° NE
Cosmos 1151 Rocket 4.3 12:23:48 35° NE 12:24:42 40° E 12:28:48 10° SSE
H-2A R/B 4.1 12:28:04 36° E 12:28:29 37° E 12:32:01 10° SSE
Cosmos 1634 Rocket 4.0 12:24:45 23° N 12:28:47 78° E 12:34:59 10° S
SL-4 R/B 3.9 12:33:52 19° SSE 12:34:41 21° SE 12:37:25 10° ENE
BREEZE-M DEB 3.8 12:37:56 39° E 12:37:56 39° E 12:41:22 10° NE
Okean 3 Rocket 3.6 12:36:54 10° S 12:41:25 81° E 12:45:58 10° N
DELTA 2 R/B (1) 3.9 12:41:22 48° NNW 12:41:33 48° N 12:46:54 10° ENE
Cosmos 1354 Rocket 3.9 12:37:01 10° SSW 12:42:17 86° WNW 12:47:36 10° NNE
Cosmos 2369 Rocket 4.2 12:49:41 13° N 12:49:41 13° N 12:50:22 10° N
Meteor 2-13 Rocket 4.4 12:39:48 10° SSW 12:45:44 54° W 12:51:41 10° N
MOS 1-B Rocket 4.2 12:39:54 10° SSE 12:46:16 71° ENE 12:51:58 10° N
Cosmos 1328 Rocket 4.1 12:47:57 18° N 12:51:00 56° E 12:55:13 10° SSE
CZ-2C R/B 3.1 12:53:13 10° SSE 12:58:36 61° ENE 13:03:53 10° N
CZ-4B R/B 4.2 12:55:31 10° NNE 13:00:00 77° E 13:04:25 10° S
OAO 2 Rocket 4.3 12:58:55 20° SW 13:02:12 43° SSE 13:07:03 10° E
COSMO-SKYMED 1 3.1 12:58:18 10° SSE 13:02:33 59° ENE 13:06:50 10° N
Meteor 1-10 Rocket 4.5 13:01:26 10° N 13:06:58 68° E 13:12:29 10° SSE
SL-27 R/B 4.3 13:05:01 11° N 13:07:59 30° ENE 13:11:06 10° SE
Cosmos 836 Rocket 4.5 13:07:16 32° NW 13:09:31 58° WSW 13:14:36 10° S
Cosmos 1408 Rocket 3.4 13:06:48 10° S 13:11:06 90° ENE 13:15:25 10° N
ADEOS 4.1 13:06:52 10° NNE 13:12:02 61° ESE 13:17:10 10° S
Landsat 5 4.0 13:12:42 10° SSE 13:17:09 64° ENE 13:21:35 10° N
DNEPR-1 R/B 4.1 13:14:24 24° NW 13:17:38 78° WSW 13:23:55 10° SSE
FALCON 9 R/B 4.1 13:04:13 23° W 13:21:58 85° SSW 13:29:02 10° ESE
Cosmos 1743 Rocket 4.2 13:17:42 10° S 13:22:01 58° E 13:26:17 10° NNE
SKYMED 3 4.5 13:22:20 10° S 13:26:39 69° W 13:30:59 10° NNW
Cosmos 1777 Rocket 3.9 13:21:57 10° SSW 13:27:05 61° WNW 13:32:15 10° N
SJ 16-02 1.3 13:23:55 10° SSW 13:28:13 60° WNW 13:32:33 10° N
Cosmos 1812 4.3 13:33:40 18° WSW 13:33:40 18° WSW 13:35:28 10° SW
Cosmos 773 Rocket 4.0 13:29:06 10° NNW 13:34:19 84° ENE 13:39:28 10° SSE
CZ-2C R/B 3.3 13:31:05 10° NNE 13:36:05 71° ESE 13:41:20 10° S
Cosmos 1515 Rocket 3.4 13:32:16 10° N 13:36:37 79° W 13:40:56 10° S
BREEZE-M DEB (TANK) 3.9 13:28:25 13° NW 13:41:43 60° SW 13:46:12 10° SSE
Meteor 2-15 Rocket 4.4 13:36:06 10° N 13:42:12 85° W 13:48:15 10° S
NOAA 11 4.1 13:37:07 10° N 13:42:36 76° WNW 13:48:04 10° SSW
Cosmos 1340 Rocket 2.7 13:38:47 10° SSW 13:42:41 64° W 13:46:39 10° N
CZ-4B R/B 2.7 13:41:35 10° NNE 13:45:10 78° E 13:48:50 10° S
ATLAS 5 CENTAUR R/B 2.5 13:44:49 19° WNW 13:45:54 21° NW 13:49:04 10° N
Cosmos 1500 Rocket 3.6 13:44:49 10° SSW 13:49:12 59° W 13:53:37 10° N
Envisat 3.9 13:46:23 10° NNW 13:50:28 25° WNW 13:54:34 10° WSW
SKYMED 2 4.2 13:46:41 10° SSW 13:50:38 35° W 13:54:37 10° NNW
Sich 1 3.6 13:47:52 10° S 13:52:04 60° E 13:56:16 10° NNE
Nadezhda 4 Rocket 4.2 13:49:56 10° SSW 13:55:51 48° W 14:01:51 10° N
DMSP B5D2-2 4.2 13:51:22 10° SSE 13:56:35 83° ENE 14:01:48 10° N
Cosmos 1805 Rocket 3.5 13:57:14 10° S 14:01:37 77° W 14:06:00 10° N
H-2A R/B 2.8 13:57:30 10° SSE 14:01:38 54° ENE 14:05:54 10° N
COSMOS 2487 2.8 14:01:30 10° N 14:04:50 63° ENE 14:08:08 10° SSE
CZ-4C R/B 3.5 14:02:39 10° SSW 14:05:31 33° W 14:08:22 10° NNW
Lacrosse 5 2.3 14:00:57 10° SSW 14:05:58 67° SE 14:11:02 10° NE
BREEZE-M DEB (TANK) 4.4 13:55:15 10° WSW 14:07:12 33° NW 14:11:03 10° NNE
Meteor 1-31 Rocket 4.4 14:07:14 10° NW 14:09:21 14° WNW 14:11:27 10° WSW
ATLAS 3B R/B 3.2 14:04:59 10° WSW 14:10:52 35° NW 14:16:59 10° NNE
Meteor 1-27 Rocket 4.0 14:05:38 10° NNW 14:11:08 51° W 14:16:44 10° SSW
Alouette 2 Rocket 3.2 14:08:23 10° NNW 14:11:57 79° WSW 14:15:57 10° S
Cosmos 1428 Rocket 4.4 14:06:06 10° S 14:12:14 75° W 14:18:22 10° N
SL-4 R/B 2.5 14:10:52 10° W 14:14:00 31° NW 14:17:18 10° NNE
AQUARIUS 4.4 14:09:31 10° NNE 14:14:02 79° E 14:18:30 10° S
Cosmos 1939 Rocket 2.8 14:10:58 10° N 14:14:48 61° WNW 14:18:35 10° SSW
Cosmos 1092 Rocket 4.1 14:08:47 10° SSW 14:14:56 61° W 14:21:11 10° N
Cosmos 990 Rocket 4.0 14:13:32 10° SSW 14:18:47 84° WNW 14:24:03 10° NNE
